Flag for Canada Weather past 2 weeks in Kelowna, British Columbia, Canada

Now
23 °F

Passing clouds.


Feels Like: 23 °F
Forecast: 24 / 51 °F
Wind: 2 mph from North

Location: Kelowna Airport

Current Time: Mar 4, 2015 at 10:40:17 PM

Latest Report: Mar 4, 2015 at 10:00 PM


Visibility: 9 mi

Pressure: 30.35 "Hg

Humidity: 68%

Dew point: 14 °F

Location of KelownaLocation

Historic Weather in Kelowna — Graph

°F

Kelowna temperature yesterday

Maximum temperature yesterday: 39 °F (at 3:00 PM)
Minimum temperature yesterday: 12 °F (at 6:00 AM)
Average temperature yesterday: 25 °F

Past Weeks' High & Low Weather Summary

 TemperatureHumidityPressure
High50 °F (Feb 20, 3:00 PM)100% (Feb 17, 9:00 PM)30.58 "Hg (Feb 17, 9:00 PM)
Low12 °F (Mar 3, 6:00 AM)17% (Mar 3, 3:00 PM)29.93 "Hg (Feb 27, 3:49 AM)
Average33 °F70%30.27 "Hg
* Reported Feb 17 9:00 PM — Mar 4 9:00 PM, Kelowna, Weather by CustomWeather, © 2015

Note: Actual official high and low records may vary slightly from our data, if they occured in-between our weather recording intervals... More about our weather records

Advertising

Kelowna weather history for previous 24 hours

 ConditionsComfort  
Time TempWeatherWind HumidityBarometerVisibility
9:00 PM
Wed, Mar 4
25 °FClear.2 mph69%30.34 "Hg9 mi
8:00 PM25 °FPassing clouds.3 mph69%30.32 "Hg9 mi
7:00 PM28 °FPassing clouds.5 mph55%30.33 "Hg9 mi
6:00 PM34 °FClear.3 mph38%30.31 "Hg9 mi
5:00 PM37 °FSunny.8 mph33%30.30 "Hg9 mi
4:00 PM39 °FSunny.7 mph28%30.30 "Hg9 mi
2:00 PM41 °FSunny.3 mph20%30.31 "Hg9 mi
1:00 PM37 °FSunny.6 mph28%30.33 "Hg9 mi
12:00 PM36 °FSunny.3 mph32%30.36 "Hg9 mi
11:00 AM32 °FSunny.6 mph37%30.37 "Hg9 mi
10:00 AM30 °FPartly sunny.3 mph40%30.39 "Hg9 mi
9:00 AM27 °FSunny.3 mph50%30.41 "Hg9 mi
8:00 AM21 °FSunny.No wind68%30.41 "Hg9 mi
7:00 AM14 °FPassing clouds.2 mph79%30.40 "Hg9 mi
6:00 AM14 °FClear.2 mph73%30.39 "Hg9 mi
5:00 AM14 °FClear.No wind79%30.37 "Hg9 mi
4:00 AM16 °FClear.3 mph79%30.36 "Hg9 mi
3:00 AM16 °FClear.2 mph79%30.36 "Hg9 mi
2:00 AM16 °FClear.2 mph73%30.36 "Hg9 mi
1:00 AM18 °FClear.3 mph68%30.35 "Hg9 mi
12:00 AM16 °FClear.2 mph73%30.34 "Hg9 mi
11:00 PM
Tue, Mar 3
19 °FClear.2 mph68%30.32 "Hg9 mi
10:00 PM18 °FClear.3 mph73%30.32 "Hg9 mi
Weather by CustomWeather, © 2015

See weather overviewHow to use our weather pages